Bridgeport, WV

9:36 PM EST on February 22, 2017 (GMT -0500)
Benedum

Weather History for KCKB - February, 2013

Change the Weather History Date:

Thursday, February 14, 2013

  Actual Average Record
Temperature  
Mean Temperature 37 °F 34 °F  
Max Temperature 44 °F 43 °F 122 °F (2016)
Min Temperature 30 °F 25 °F -9 °F (1934)
Degree Days  
Heating Degree Days 28 31  
Month to date heating degree days 452  
Since 1 July heating degree days 3544  
Cooling Degree Days 0 0  
Month to date cooling degree days 0  
Year to date cooling degree days 0  
Moisture  
Dew Point 27 °F    
Average Humidity 68    
Maximum Humidity 82    
Minimum Humidity 55    
Precipitation  
Precipitation 0.00 in 0.11 in 1.56 in (1940)
Month to date precipitation 1.60  
Year to date precipitation 5.05  
Sea Level Pressure  
Sea Level Pressure 29.95 in    
Wind  
Wind Speed 7 mph (SSW)    
Max Wind Speed 13 mph    
Max Gust Speed 17 mph    
Visibility 10 miles    
Events      
T = Trace of Precipitation, MM = Missing Value Source: NWS Daily Summary

Daily Weather History Graph

Daily Weather History Graph

Search for Another Location

Airport or City:

Trip Planner

Search our weather history database for the weather conditions in past years. The results will help you decide how hot, cold, wet, or windy it might be!

Date:

Astronomy

Feb. 14, 2013 Rise Set
Actual Time 7:13 AM EST 5:57 PM EST
Civil Twilight 6:46 AM EST 6:24 PM EST
Nautical Twilight 6:14 AM EST 6:55 PM EST
Astronomical Twilight 5:43 AM EST 7:27 PM EST
Moon 9:16 AM EST (2/14) 10:56 PM EST (2/14)
Length of Visible Light 11h 38m
Length of Day
10h 43m
Waxing Crescent, 21% of the Moon is Illuminated
Feb 14
Waxing Crescent
Feb 17
First Quarter
Feb 25
Full
Mar 4
Last Quarter
Mar 11
New

Hourly Weather History & Observations

Time (EST) Temp. Windchill Dew Point Humidity Pressure Visibility Wind Dir Wind Speed Gust Speed Precip Events Conditions
12:53 AM 32.0 °F 25.6 °F 26.1 °F 79% 29.90 in 10.0 mi WSW 6.9 mph - N/A   Overcast
1:53 AM 32.0 °F 26.4 °F 24.1 °F 73% 29.91 in 10.0 mi West 5.8 mph - N/A   Overcast
2:53 AM 30.9 °F 25.2 °F 26.1 °F 82% 29.93 in 10.0 mi West 5.8 mph - N/A   Overcast
3:53 AM 30.9 °F 22.8 °F 24.1 °F 76% 29.95 in 10.0 mi SW 9.2 mph - N/A   Overcast
4:53 AM 30.0 °F 24.1 °F 24.1 °F 79% 29.97 in 10.0 mi SSW 5.8 mph - N/A   Overcast
5:53 AM 30.9 °F 25.2 °F 24.1 °F 76% 29.97 in 10.0 mi South 5.8 mph - N/A   Overcast
6:53 AM 30.9 °F 26.2 °F 25.0 °F 79% 29.99 in 10.0 mi South 4.6 mph - N/A   Overcast
7:53 AM 32.0 °F 28.7 °F 25.0 °F 75% 29.99 in 10.0 mi SSW 3.5 mph - N/A   Overcast
8:53 AM 33.1 °F 27.7 °F 27.0 °F 78% 29.99 in 10.0 mi South 5.8 mph - N/A   Overcast
9:53 AM 34.0 °F 26.0 °F 28.0 °F 79% 30.00 in 10.0 mi SW 10.4 mph - N/A   Overcast
10:53 AM 36.0 °F 29.6 °F 28.9 °F 76% 29.99 in 10.0 mi SSW 8.1 mph - N/A   Overcast
11:53 AM 39.0 °F 31.4 °F 30.9 °F 73% 29.99 in 10.0 mi SSW 12.7 mph - N/A   Overcast
12:53 PM 39.9 °F 33.9 °F 30.0 °F 68% 29.97 in 10.0 mi SSW 9.2 mph - N/A   Mostly Cloudy
1:53 PM 41.0 °F 35.2 °F 28.9 °F 62% 29.94 in 10.0 mi South 9.2 mph - N/A   Mostly Cloudy
2:00 PM 42.8 °F 38.0 °F 30.2 °F 61% 29.92 in 10.0 mi SSE 8.1 mph - N/A   Scattered Clouds
2:53 PM 44.1 °F 39.0 °F 30.0 °F 58% 29.91 in 10.0 mi South 9.2 mph 17.3 mph N/A   Scattered Clouds
3:53 PM 44.1 °F 38.1 °F 28.9 °F 55% 29.90 in 10.0 mi South 11.5 mph - N/A   Mostly Cloudy
4:53 PM 44.1 °F 39.0 °F 28.9 °F 55% 29.91 in 10.0 mi SSW 9.2 mph - N/A   Overcast
5:53 PM 42.1 °F 37.7 °F 27.0 °F 55% 29.91 in 10.0 mi SSW 6.9 mph - N/A   Clear
6:53 PM 41.0 °F 37.1 °F 27.0 °F 57% 29.93 in 10.0 mi South 5.8 mph - N/A   Partly Cloudy
7:53 PM 41.0 °F 37.1 °F 27.0 °F 57% 29.94 in 10.0 mi South 5.8 mph - N/A   Mostly Cloudy
8:53 PM 39.9 °F 35.1 °F 27.0 °F 60% 29.93 in 10.0 mi South 6.9 mph - N/A   Mostly Cloudy
9:53 PM 39.9 °F 34.5 °F 27.0 °F 60% 29.93 in 10.0 mi South 8.1 mph - N/A   Scattered Clouds
10:53 PM 39.9 °F 35.1 °F 28.0 °F 63% 29.93 in 10.0 mi SSW 6.9 mph - N/A   Mostly Cloudy
11:53 PM 39.9 °F 34.5 °F 28.0 °F 63% 29.93 in 10.0 mi SW 8.1 mph - N/A   Mostly Cloudy